�N����,����,�~����,�C��,���x,�C��,����,���ϕ���,�ő�u�ԕ���,�ő厞����,���˗�,�I�_���x,�n�����x,�ő啗���N��,DTYPE
"21/04/25","00:10",0.0,12.4,85.0,1012.6,318.5,2.0,2.2,322.0,0.00,10.0,130.0,"00:03:50",1
"21/04/25","00:20",0.0,12.3,85.6,1012.3,309.4,1.8,2.9,326.1,0.00,10.0,130.0,"00:17:46",1
"21/04/25","00:30",0.0,12.5,86.1,1012.3,315.3,2.2,3.3,332.6,0.00,10.3,130.0,"00:26:58",1
"21/04/25","00:40",0.0,12.6,86.3,1012.3,318.9,2.2,3.1,332.1,0.00,10.4,130.0,"00:31:50",1
"21/04/25","00:50",0.0,12.7,86.4,1012.8,319.2,1.7,2.8,334.5,0.00,10.5,130.0,"00:44:48",1
"21/04/25","01:00",0.0,12.6,86.5,1012.3,296.9,1.1,2.0,312.2,0.00,10.4,130.0,"00:58:18",1
"21/04/25","01:10",0.0,12.5,86.6,1012.1,316.8,1.5,2.1,332.9,0.00,10.4,130.0,"01:03:36",1
"21/04/25","01:20",0.0,12.6,86.9,1012.3,299.7,1.7,2.2,317.1,0.00,10.5,130.0,"01:11:28",1
"21/04/25","01:30",0.0,12.7,86.9,1012.1,327.0,1.8,3.6,340.5,0.00,10.6,130.0,"01:26:48",1
"21/04/25","01:40",0.0,12.7,86.9,1012.3,327.6,1.3,2.9,320.1,0.00,10.6,130.0,"01:32:24",1
"21/04/25","01:50",0.0,12.3,87.0,1012.1,339.4,0.8,1.7,316.6,0.00,10.2,130.0,"01:47:06",1
"21/04/25","02:00",0.0,12.1,87.1,1012.1,300.5,1.2,1.8,314.2,0.00,10.1,130.0,"01:50:16",1
"21/04/25","02:10",0.0,11.9,87.3,1011.9,282.4,1.0,1.7,280.8,0.00,9.9,130.0,"02:08:30",1
"21/04/25","02:20",0.0,11.9,87.5,1011.4,310.9,0.7,1.8,306.6,0.00,9.9,130.0,"02:19:24",1
"21/04/25","02:30",0.0,11.9,87.8,1011.6,328.8,2.1,2.5,334.7,0.00,10.0,130.0,"02:23:20",1
"21/04/25","02:40",0.0,11.8,88.1,1011.4,314.8,1.8,2.4,324.9,0.00,9.9,130.0,"02:34:48",1
"21/04/25","02:50",0.0,11.8,88.5,1011.4,288.3,1.3,2.1,321.4,0.00,10.0,130.0,"02:49:14",1
"21/04/25","03:00",0.0,11.9,88.7,1011.4,316.1,1.6,2.2,317.4,0.00,10.1,130.0,"02:51:12",1
"21/04/25","03:10",0.0,11.9,88.8,1011.4,295.9,1.0,1.7,315.1,0.00,10.2,130.0,"03:07:14",1
"21/04/25","03:20",0.0,11.9,89.0,1011.4,314.8,1.5,2.2,323.1,0.00,10.2,130.0,"03:17:10",1
"21/04/25","03:30",0.0,11.7,89.2,1010.9,322.6,2.1,2.7,325.1,0.00,10.0,130.0,"03:24:48",1
"21/04/25","03:40",0.0,11.5,89.5,1010.7,304.4,1.6,2.2,322.1,0.00,9.9,130.0,"03:30:24",1
"21/04/25","03:50",0.0,11.5,89.8,1010.4,304.6,1.7,2.1,317.8,0.00,9.9,130.0,"03:47:12",1
"21/04/25","04:00",0.0,11.5,90.0,1010.2,312.6,2.0,2.5,315.0,0.00,10.0,130.0,"03:52:56",1
"21/04/25","04:10",0.0,11.5,90.1,1010.2,302.4,1.7,2.6,316.0,0.00,10.0,130.0,"04:00:40",1
"21/04/25","04:20",0.0,11.3,90.3,1010.4,319.2,1.5,2.1,321.6,0.00,9.8,130.0,"04:10:24",1
"21/04/25","04:30",0.0,10.9,90.3,1010.4,284.0,1.1,1.4,312.2,0.00,9.4,130.0,"04:22:16",1
"21/04/25","04:40",0.0,10.7,90.8,1010.4,301.3,1.6,2.8,332.6,0.00,9.3,130.0,"04:39:52",1
"21/04/25","04:50",0.0,11.1,90.8,1010.4,301.7,2.0,2.9,337.4,0.00,9.7,130.0,"04:40:40",1
"21/04/25","05:00",0.0,11.3,91.0,1010.4,310.7,2.3,4.0,313.5,0.00,9.9,130.0,"04:59:52",1
"21/04/25","05:10",0.0,11.7,90.8,1010.4,309.9,2.6,5.5,326.5,0.00,10.3,130.0,"05:00:48",1
"21/04/25","05:20",0.0,11.6,90.6,1010.7,321.1,2.1,3.3,330.8,0.00,10.2,130.0,"05:13:52",1
"21/04/25","05:30",0.0,11.8,90.8,1010.7,323.8,2.1,2.8,320.5,0.00,10.4,130.0,"05:28:48",1
"21/04/25","05:40",0.0,12.1,90.6,1010.9,297.0,1.3,3.1,324.3,0.00,10.7,130.0,"05:34:48",1
"21/04/25","05:50",0.0,12.3,90.4,1010.7,290.8,1.2,3.1,316.3,0.00,10.8,130.0,"05:46:42",1
"21/04/25","06:00",0.0,12.3,90.0,1011.2,287.3,1.7,2.4,317.9,0.00,10.7,130.0,"05:58:00",1
"21/04/25","06:10",0.0,12.4,89.9,1011.2,299.9,2.2,2.7,319.4,0.00,10.8,130.0,"06:08:28",1
"21/04/25","06:20",0.0,12.6,89.7,1011.4,305.0,1.8,2.5,307.0,0.01,11.0,130.0,"06:16:48",1
"21/04/25","06:30",0.0,13.0,89.3,1011.4,310.7,2.5,3.7,311.4,0.01,11.3,130.0,"06:26:40",1
"21/04/25","06:40",0.0,13.3,88.8,1011.2,319.8,2.6,4.2,322.9,0.01,11.5,130.0,"06:31:36",1
"21/04/25","06:50",0.0,13.6,88.3,1011.9,317.2,2.3,3.2,330.2,0.03,11.7,130.0,"06:44:32",1
"21/04/25","07:00",0.0,14.1,87.5,1011.9,322.5,2.5,3.4,334.6,0.07,12.1,130.0,"06:55:04",1
"21/04/25","07:10",0.0,14.2,86.7,1011.9,298.4,2.0,2.9,337.8,0.05,12.1,130.0,"07:03:28",1
"21/04/25","07:20",0.0,14.5,85.9,1012.3,301.9,1.6,2.6,334.0,0.05,12.2,130.0,"07:11:36",1
"21/04/25","07:30",0.0,14.6,85.2,1012.1,309.3,1.8,2.8,319.6,0.03,12.2,130.0,"07:25:36",1
"21/04/25","07:40",0.0,14.9,84.7,1012.1,303.9,1.7,3.1,304.1,0.08,12.4,130.0,"07:33:36",1
"21/04/25","07:50",0.0,15.3,83.7,1011.9,298.0,1.7,4.7,334.7,0.12,12.6,130.0,"07:40:02",1
"21/04/25","08:00",0.0,15.4,82.0,1012.3,347.6,2.3,4.2,348.0,0.10,12.4,130.0,"07:51:36",1
"21/04/25","08:10",0.0,16.3,79.3,1012.3,349.2,2.8,7.4,345.5,0.25,12.8,130.0,"08:09:12",1
"21/04/25","08:20",0.0,15.8,76.7,1012.1,349.8,3.2,5.9,341.1,0.13,11.8,130.0,"08:11:44",1
"21/04/25","08:30",0.0,15.7,75.8,1012.1,356.3,2.5,4.5,42.4,0.14,11.5,130.0,"08:28:08",1
"21/04/25","08:40",0.0,16.0,74.3,1012.1,351.7,2.8,4.9,336.3,0.21,11.5,130.0,"08:37:28",1
"21/04/25","08:50",0.0,15.9,72.6,1012.3,338.8,2.7,4.9,334.0,0.15,11.0,130.0,"08:43:12",1
"21/04/25","09:00",0.0,16.4,70.8,1012.1,3.4,2.3,4.7,343.0,0.25,11.1,130.0,"08:51:52",1
"21/04/25","09:10",0.0,17.2,67.3,1012.3,357.7,2.5,6.2,28.2,0.38,11.1,130.0,"09:08:24",1
"21/04/25","09:20",0.0,17.4,64.0,1012.1,358.0,2.8,7.1,336.0,0.41,10.6,130.0,"09:17:28",1
"21/04/25","09:30",0.0,17.9,60.1,1011.6,345.1,3.0,6.2,341.1,0.46,10.1,130.0,"09:20:24",1
"21/04/25","09:40",0.0,18.5,55.8,1011.9,356.5,2.6,5.4,319.5,0.47,9.6,130.0,"09:38:56",1
"21/04/25","09:50",0.0,18.6,50.0,1011.9,0.3,3.1,6.3,344.5,0.52,8.0,130.0,"09:46:40",1
"21/04/25","10:00",0.0,18.9,49.0,1011.6,349.5,3.2,5.5,342.6,0.53,8.0,130.0,"09:54:24",1
"21/04/25","10:10",0.0,18.9,48.5,1011.4,348.8,3.1,8.7,342.6,0.48,7.9,130.0,"10:00:02",1
"21/04/25","10:20",0.0,19.0,40.5,1011.4,348.2,4.1,8.0,323.9,0.51,5.3,130.0,"10:10:02",1
"21/04/25","10:30",0.0,18.8,40.6,1011.4,358.8,3.2,6.4,329.3,0.38,5.2,130.0,"10:29:04",1
"21/04/25","10:40",0.0,18.8,38.8,1011.4,351.8,2.8,7.4,18.5,0.35,4.5,130.0,"10:36:24",1
"21/04/25","10:50",0.0,19.1,35.5,1011.4,346.3,3.6,7.9,340.3,0.51,3.5,130.0,"10:40:40",1
"21/04/25","11:00",0.0,19.5,32.3,1010.9,0.3,2.8,5.9,342.5,0.53,2.6,130.0,"10:51:20",1
"21/04/25","11:10",0.0,19.8,33.5,1010.9,346.3,3.1,8.1,328.7,0.62,3.3,130.0,"11:06:00",1
"21/04/25","11:20",0.0,20.0,29.7,1010.7,6.7,2.8,5.8,25.9,0.63,1.8,130.0,"11:15:20",1
"21/04/25","11:30",0.0,20.0,28.8,1010.7,5.7,3.1,5.9,344.9,0.56,1.4,130.0,"11:27:52",1
"21/04/25","11:40",0.0,20.4,29.4,1010.2,3.9,2.8,6.2,335.8,0.62,2.0,130.0,"11:30:16",1
"21/04/25","11:50",0.0,20.4,28.1,1010.4,5.8,2.5,4.2,349.7,0.61,1.4,130.0,"11:43:04",1
"21/04/25","12:00",0.0,20.4,27.6,1010.4,359.6,2.7,6.0,343.7,0.61,1.1,130.0,"11:51:52",1
"21/04/25","12:10",0.0,20.5,29.4,1010.0,344.2,3.0,6.6,338.9,0.62,2.1,130.0,"12:07:20",1
"21/04/25","12:20",0.0,20.3,26.1,1010.2,346.7,4.1,7.4,337.2,0.63,0.3,130.0,"12:14:08",1
"21/04/25","12:30",0.0,20.3,25.9,1009.7,331.2,4.5,8.8,317.5,0.64,0.2,130.0,"12:28:24",1
"21/04/25","12:40",0.0,20.6,29.3,1009.5,324.1,4.1,7.0,341.5,0.63,2.1,130.0,"12:39:12",1
"21/04/25","12:50",0.0,20.8,29.0,1009.5,344.1,3.7,8.1,342.8,0.62,2.2,130.0,"12:47:36",1
"21/04/25","13:00",0.0,21.0,30.5,1009.5,335.3,3.7,8.5,344.3,0.61,3.1,130.0,"12:58:08",1
"21/04/25","13:10",0.0,20.9,32.7,1009.3,343.9,4.2,7.7,339.9,0.61,4.0,130.0,"13:08:40",1
"21/04/25","13:20",0.0,20.7,33.6,1009.5,344.1,4.2,7.1,344.4,0.60,4.2,130.0,"13:10:24",1
"21/04/25","13:30",0.0,20.2,32.8,1009.7,338.3,4.7,11.1,334.5,0.59,3.4,130.0,"13:25:52",1
"21/04/25","13:40",0.0,20.0,33.8,1009.7,341.4,5.0,10.1,336.0,0.58,3.6,130.0,"13:38:16",1
"21/04/25","13:50",0.0,19.9,33.2,1009.7,343.8,4.1,8.0,352.6,0.57,3.3,130.0,"13:48:40",1
"21/04/25","14:00",0.0,19.8,34.5,1009.7,339.2,5.2,9.0,339.5,0.56,3.7,130.0,"13:56:24",1
"21/04/25","14:10",0.0,19.9,34.7,1009.7,338.5,4.9,10.3,341.6,0.55,3.9,130.0,"14:07:04",1
"21/04/25","14:20",0.0,20.3,34.5,1010.0,0.5,3.0,7.8,356.1,0.53,4.2,130.0,"14:12:32",1
"21/04/25","14:30",0.0,19.9,38.1,1009.5,347.2,4.0,9.4,332.5,0.49,5.3,130.0,"14:23:44",1
"21/04/25","14:40",0.0,19.3,40.6,1009.7,351.8,3.4,7.5,331.7,0.42,5.6,130.0,"14:38:32",1
"21/04/25","14:50",0.0,18.9,41.9,1009.7,348.8,3.9,7.4,326.4,0.38,5.7,130.0,"14:44:16",1
"21/04/25","15:00",0.0,17.8,44.1,1009.7,0.1,3.4,8.5,344.2,0.13,5.5,130.0,"14:51:04",1
"21/04/25","15:10",0.0,17.8,45.1,1009.5,9.8,3.0,6.0,20.8,0.16,5.8,130.0,"15:06:24",1
"21/04/25","15:20",0.0,17.9,46.4,1010.0,0.1,2.8,8.3,345.0,0.17,6.3,130.0,"15:18:56",1
"21/04/25","15:30",0.0,17.1,50.3,1010.2,351.2,3.6,6.2,333.0,0.10,6.7,130.0,"15:25:12",1
"21/04/25","15:40",0.0,16.7,53.2,1010.7,344.1,3.9,6.4,6.0,0.14,7.2,130.0,"15:31:28",1
"21/04/25","15:50",0.0,16.1,55.7,1010.7,339.4,4.2,9.0,329.5,0.09,7.3,130.0,"15:47:20",1
"21/04/25","16:00",0.0,15.7,59.2,1010.2,341.0,4.2,7.9,324.5,0.06,7.8,130.0,"15:54:40",1
"21/04/25","16:10",0.0,15.8,60.8,1010.4,323.9,4.2,8.2,353.6,0.17,8.3,130.0,"16:05:36",1
"21/04/25","16:20",0.0,16.2,60.4,1010.4,330.8,3.4,7.9,349.4,0.19,8.6,130.0,"16:10:40",1
"21/04/25","16:30",0.0,15.5,61.7,1010.4,339.3,2.7,5.7,322.8,0.03,8.2,130.0,"16:26:00",1
"21/04/25","16:40",0.0,15.3,62.4,1010.2,346.0,2.2,4.5,337.4,0.03,8.2,130.0,"16:30:02",1
"21/04/25","16:50",0.0,15.2,62.9,1010.7,336.6,3.0,5.9,344.0,0.04,8.2,130.0,"16:47:20",1
"21/04/25","17:00",0.0,15.1,62.8,1010.7,338.4,2.3,4.2,318.0,0.03,8.1,130.0,"16:53:36",1
"21/04/25","17:10",0.0,15.0,61.6,1010.9,325.7,3.5,7.4,317.5,0.03,7.7,130.0,"17:08:48",1
"21/04/25","17:20",0.0,14.9,59.3,1010.7,335.5,3.9,7.3,326.3,0.02,7.1,130.0,"17:11:12",1
"21/04/25","17:30",0.0,14.8,59.9,1010.9,330.4,3.4,7.0,295.5,0.02,7.1,130.0,"17:23:20",1
"21/04/25","17:40",0.0,14.6,59.9,1010.7,327.7,2.6,5.5,343.7,0.01,6.9,130.0,"17:34:16",1
"21/04/25","17:50",0.0,14.5,60.4,1011.2,336.4,4.1,7.7,324.6,0.01,7.0,130.0,"17:48:18",1
"21/04/25","18:00",0.0,14.2,59.4,1010.9,329.5,5.1,7.7,316.9,0.00,6.4,130.0,"17:58:52",1
"21/04/25","18:10",0.0,14.2,58.9,1011.4,351.8,2.6,6.5,340.7,0.00,6.3,130.0,"18:00:16",1
"21/04/25","18:20",0.0,14.1,59.7,1011.2,329.8,2.1,7.3,345.6,0.00,6.4,130.0,"18:14:48",1
"21/04/25","18:30",0.0,13.9,60.3,1011.4,336.2,2.8,4.9,19.7,0.00,6.4,130.0,"18:20:50",1
"21/04/25","18:40",0.0,13.7,60.7,1011.9,337.8,2.7,5.5,325.9,0.00,6.3,130.0,"18:34:52",1
"21/04/25","18:50",0.0,13.7,60.5,1011.6,327.8,2.6,5.4,325.3,0.00,6.2,130.0,"18:49:58",1
"21/04/25","19:00",0.0,13.5,60.6,1011.9,335.5,3.0,6.4,329.6,0.00,6.1,130.0,"18:58:28",1
"21/04/25","19:10",0.0,13.2,61.6,1011.6,330.0,2.2,4.2,333.0,0.00,6.0,130.0,"19:06:18",1
"21/04/25","19:20",0.0,12.9,60.3,1012.1,337.3,3.5,7.9,327.2,0.00,5.4,130.0,"19:19:08",1
"21/04/25","19:30",0.0,12.7,59.8,1012.3,330.5,4.4,9.6,328.8,0.00,5.1,130.0,"19:26:50",1
"21/04/25","19:40",0.0,12.3,59.5,1012.6,331.8,3.0,8.6,328.3,0.00,4.7,130.0,"19:31:10",1
"21/04/25","19:50",0.0,12.2,60.4,1012.8,331.7,3.4,7.1,341.7,0.00,4.8,130.0,"19:42:58",1
"21/04/25","20:00",0.0,12.0,60.9,1013.0,328.8,3.6,7.3,299.9,0.00,4.7,130.0,"19:53:50",1
"21/04/25","20:10",0.0,11.8,61.0,1012.8,339.0,3.0,7.8,335.3,0.00,4.6,130.0,"20:05:46",1
"21/04/25","20:20",0.0,11.5,60.5,1013.3,338.6,3.5,6.3,319.1,0.00,4.2,130.0,"20:13:56",1
"21/04/25","20:30",0.0,11.5,59.1,1013.3,351.3,3.1,5.6,4.1,0.00,3.8,130.0,"20:21:24",1
"21/04/25","20:40",0.0,11.2,56.5,1013.8,354.6,3.5,8.7,346.9,0.00,2.9,130.0,"20:31:06",1
"21/04/25","20:50",0.0,11.0,56.0,1014.0,351.6,3.5,6.3,357.7,0.00,2.6,130.0,"20:41:58",1
"21/04/25","21:00",0.0,10.8,57.2,1014.2,338.6,4.4,7.9,350.2,0.00,2.7,130.0,"20:51:06",1
"21/04/25","21:10",0.0,10.9,57.8,1014.0,339.3,3.9,8.3,334.1,0.00,3.0,130.0,"21:05:08",1
"21/04/25","21:20",0.0,10.7,58.1,1014.2,330.7,3.7,7.2,310.0,0.00,2.8,130.0,"21:13:48",1
"21/04/25","21:30",0.0,10.3,58.9,1014.0,328.1,2.7,5.5,340.6,0.00,2.7,130.0,"21:28:10",1
"21/04/25","21:40",0.0,10.4,59.2,1014.5,325.6,3.5,5.7,316.5,0.00,2.8,130.0,"21:38:00",1
"21/04/25","21:50",0.0,10.3,59.6,1014.0,331.1,3.2,5.9,309.3,0.00,2.8,130.0,"21:45:52",1
"21/04/25","22:00",0.0,10.2,59.6,1014.0,330.6,2.6,6.3,332.0,0.00,2.7,130.0,"21:52:24",1
"21/04/25","22:10",0.0,10.3,59.3,1014.2,345.2,2.6,5.0,325.9,0.00,2.8,130.0,"22:02:24",1
"21/04/25","22:20",0.0,10.3,59.5,1014.2,332.7,1.7,3.6,321.6,0.00,2.8,130.0,"22:17:54",1
"21/04/25","22:30",0.0,10.4,59.3,1014.2,346.1,1.5,2.9,333.5,0.00,2.9,130.0,"22:21:12",1
"21/04/25","22:40",0.0,10.1,60.6,1014.2,298.9,0.8,1.8,323.5,0.00,2.9,130.0,"22:38:08",1
"21/04/25","22:50",0.0,9.9,61.0,1014.5,285.0,0.6,1.7,313.4,0.00,2.8,130.0,"22:41:52",1
"21/04/25","23:00",0.0,10.0,61.1,1014.0,341.9,1.0,2.7,346.3,0.00,2.9,130.0,"22:59:12",1
"21/04/25","23:10",0.0,9.9,62.8,1014.0,315.5,2.0,2.9,327.9,0.00,3.2,130.0,"23:01:44",1
"21/04/25","23:20",0.0,9.8,62.9,1014.0,294.7,2.1,4.0,329.5,0.00,3.1,130.0,"23:16:16",1
"21/04/25","23:30",0.0,10.0,61.7,1014.0,318.1,2.1,5.4,344.9,0.00,3.0,130.0,"23:22:50",1
"21/04/25","23:40",0.0,9.8,62.5,1014.2,323.4,1.8,2.7,335.3,0.00,3.0,130.0,"23:35:04",1
"21/04/25","23:50",0.0,10.1,61.8,1014.2,319.8,2.3,4.1,337.5,0.00,3.2,130.0,"23:45:04",1
"21/04/25","24:00",0.0,10.0,61.9,1014.2,315.5,2.2,5.5,313.5,0.00,3.1,130.0,"23:58:48",1
